Wind_Speed
39 39 39 40 40 40 41 41 41 42 43 44 44 45 46 46 46 46 45 45 45 44 43 43 42 41 41 40 38 36 36 36 34 33 33 34 36 34 30 26 24 21 15 11 12 15 17 18 21 23 24 26 27 29 31 31 31 32 34 36 37 34 32 31 32 33 34 34 35 36 35 35 35 35 37 38 38 40 43 45 45 44 43 43 42
38 39 39 39 40 40 40 40 41 42 43 44 45 46 47 47 47 47 47 47 46 45 44 43 43 42 41 40 38 36 36 35 34 33 31 31 33 32 29 24 22 20 16 16 18 19 20 21 23 25 26 26 25 27 30 31 33 35 37 38 37 34 32 31 31 33 34 34 33 33 33 35 37 38 40 41 42 43 45 45 44 43 41 40 40
39 39 39 39 39 40 41 41 42 43 44 45 46 47 48 49 49 48 48 47 47 46 45 44 43 42 42 41 39 37 35 35 34 33 31 29 30 30 28 23 21 21 20 21 23 23 23 23 25 27 29 29 27 28 31 31 33 36 39 40 38 37 35 33 33 35 36 36 36 35 34 36 40 42 42 43 44 45 45 45 46 44 41 40 42
39 39 39 40 41 42 42 43 44 45 46 47 48 49 49 49 49 48 47 46 46 45 44 43 43 42 42 41 39 37 35 35 34 33 31 29 28 28 28 24 21 22 23 24 27 28 27 26 26 28 30 31 31 32 33 34 35 37 39 41 42 41 40 39 38 38 39 39 38 38 39 39 41 44 46 47 47 48 49 48 48 46 43 43 46
40 40 41 42 43 44 45 46 46 47 47 48 48 48 48 47 47 46 45 44 44 44 43 42 42 42 42 41 40 38 36 35 34 33 32 30 28 27 27 25 21 22 24 26 28 30 31 30 29 30 32 33 34 34 34 35 37 39 41 43 45 43 42 42 41 37 37 38 39 40 41 42 43 44 47 48 49 49 49 48 47 46 44 45 47
42 42 43 44 45 45 46 47 46 47 47 47 47 47 46 45 44 44 43 43 43 43 43 43 43 43 42 41 40 39 37 36 35 34 33 32 30 27 26 25 23 21 24 27 29 31 33 34 34 34 35 36 37 37 35 35 37 40 42 44 45 45 44 44 41 38 36 38 40 44 45 45 46 45 45 47 49 50 50 49 49 49 48 48 49
43 43 43 44 45 46 46 46 46 47 47 47 47 46 45 45 44 44 43 44 44 44 44 44 44 44 43 42 41 40 38 37 37 35 34 33 32 29 27 26 24 23 23 27 31 33 33 35 36 37 38 39 40 40 39 37 37 40 43 44 46 47 47 45 44 42 40 39 40 45 50 51 50 48 46 45 47 48 49 50 50 51 52 52 54
42 43 43 45 46 47 47 48 48 48 49 49 48 47 46 46 46 46 46 46 46 45 46 46 46 45 44 43 42 42 41 39 39 37 36 35 34 32 30 28 26 24 23 24 29 34 37 37 38 39 40 41 42 42 42 41 40 41 43 44 45 46 47 47 48 46 44 42 42 43 49 56 56 55 52 50 49 49 50 51 52 53 53 54 56
43 44 45 47 48 49 50 50 50 51 50 50 49 48 48 48 48 48 49 48 48 47 47 47 47 46 45 44 43 43 42 41 41 40 39 37 36 35 33 31 29 27 25 24 26 31 37 40 41 41 42 43 44 44 44 43 42 42 43 44 45 46 46 48 50 50 47 46 45 43 45 52 56 57 56 55 52 51 52 54 54 55 56 56 58
45 46 48 49 50 50 51 51 52 52 51 50 50 49 49 49 50 50 50 50 50 49 49 48 47 47 46 45 45 44 44 43 43 42 42 40 39 37 36 35 33 31 29 27 27 28 32 38 42 44 45 45 46 46 47 46 45 44 43 44 46 47 48 49 50 51 50 50 51 49 47 49 53 54 54 55 54 53 54 56 55 56 58 58 59
47 49 50 51 52 52 52 52 52 52 51 51 50 50 50 50 51 51 52 52 52 52 51 50 49 48 48 47 46 46 46 45 45 45 44 44 42 41 39 38 37 35 34 32 31 29 30 33 38 43 46 48 49 49 49 49 48 47 47 47 47 47 48 50 52 53 54 54 56 56 54 54 56 56 56 57 57 57 60 61 60 59 59 59 60
50 52 53 53 54 53 53 53 53 53 52 51 51 51 51 51 52 53 53 54 55 55 54 53 51 49 49 48 48 47 47 47 47 47 46 45 45 44 42 41 41 40 38 37 36 34 33 33 34 38 43 47 50 52 52 52 52 51 51 52 52 51 50 50 52 54 56 57 60 62 62 62 62 61 60 60 61 62 64 65 65 62 61 61 60
53 54 55 55 55 55 55 54 55 54 53 52 52 52 52 52 53 54 55 56 56 56 55 54 52 51 49 49 49 48 48 49 48 48 48 47 46 46 46 45 44 44 43 42 40 39 38 37 36 37 39 43 47 51 54 55 56 56 56 55 56 57 57 55 54 55 57 58 61 65 68 68 68 67 67 66 66 67 69 70 69 67 66 65 65
56 57 57 57 57 56 56 56 56 55 54 53 53 52 53 53 54 55 56 56 56 55 54 53 53 52 51 51 50 49 49 49 49 49 49 48 48 48 48 48 48 47 47 46 45 44 43 42 41 40 40 41 44 48 51 55 58 59 60 60 60 60 62 62 61 59 60 60 62 65 68 71 72 73 74 74 73 73 73 72 71 71 71 71 72
58 58 59 58 58 57 57 56 56 55 54 53 53 53 53 54 54 55 56 56 55 54 53 52 52 52 52 52 52 51 50 49 49 49 49 49 50 50 50 50 50 50 50 49 49 48 47 46 45 45 44 44 44 46 48 52 55 59 61 63 64 64 64 66 66 66 65 65 65 66 68 71 74 75 76 77 76 75 74 72 71 72 72 73 73
60 60 59 59 59 58 57 57 56 56 54 53 53 53 54 54 55 56 56 55 55 53 52 51 51 51 51 52 52 52 51 51 50 50 50 50 50 51 51 51 52 52 52 52 52 51 51 50 50 49 48 48 47 48 49 50 52 55 59 62 65 66 67 68 69 70 70 70 70 70 70 71 72 73 74 75 74 74 74 73 72 72 73 72 72
60 60 59 59 59 58 57 57 56 55 54 53 54 54 54 55 55 56 56 55 55 54 54 53 53 52 52 52 52 52 52 52 52 51 51 51 52 52 52 52 53 53 54 54 54 54 54 54 54 53 53 52 51 51 52 52 53 54 57 60 63 66 69 70 71 72 73 74 74 74 74 74 73 73 73 73 73 73 73 74 76 77 77 77 77
60 59 59 59 59 58 57 56 55 54 53 53 53 53 54 55 56 56 56 56 57 57 57 56 55 54 54 54 53 53 53 52 52 53 53 53 53 54 54 54 55 55 55 56 56 57 57 57 57 57 57 56 56 55 55 55 56 57 58 59 61 64 68 71 73 75 75 76 77 78 78 78 77 77 77 76 75 74 74 75 77 79 80 81 82
60 60 59 59 58 58 56 55 54 53 53 53 53 54 55 56 56 56 57 58 58 58 57 56 56 55 55 55 55 54 54 53 53 53 54 54 55 55 56 56 57 57 58 58 59 59 60 60 61 61 61 61 60 60 60 59 60 60 61 62 62 64 66 69 73 76 78 79 80 81 81 81 81 81 80 80 80 79 78 77 79 80 81 81 82
60 58 57 57 56 55 54 52 52 52 52 53 54 55 57 57 58 57 57 57 57 57 57 57 57 56 56 56 55 55 55 55 55 55 55 56 56 57 57 58 59 60 60 61 62 62 63 64 64 64 65 65 65 64 64 64 64 64 64 65 65 66 67 68 71 73 77 79 81 82 83 83 83 83 83 82 82 81 81 81 81 82 82 82 82
56 55 54 54 53 52 51 51 51 52 53 54 55 57 58 58 58 58 57 57 57 58 58 58 57 56 55 55 54 54 55 56 56 57 57 58 58 59 60 60 61 62 63 64 64 65 65 66 66 67 67 67 67 67 67 67 67 67 67 67 68 68 69 70 72 73 75 77 80 82 83 84 85 84 84 84 84 82 82 82 82 83 84 84 84
53 53 53 52 52 51 51 51 52 53 54 56 57 58 59 59 58 57 56 57 57 58 58 57 56 55 54 54 53 53 53 54 55 56 57 58 59 60 61 62 63 63 64 65 66 66 67 67 67 68 68 68 68 68 68 68 68 68 69 69 70 71 71 73 74 75 76 77 79 81 83 84 85 86 86 86 86 85 84 83 83 84 85 86 85
53 53 52 52 52 52 52 52 53 54 56 57 58 58 58 57 57 56 56 56 57 58 57 57 56 55 54 53 53 53 53 54 55 56 57 58 59 61 62 63 64 65 66 66 67 67 67 68 68 68 68 67 67 67 67 67 68 68 69 69 70 71 73 74 76 77 78 79 80 81 82 84 85 86 88 88 89 88 88 87 87 88 88 88 87
53 52 52 52 52 52 52 53 55 56 57 57 58 57 57 56 56 56 57 57 58 58 57 56 55 54 54 53 53 54 55 56 57 57 59 60 61 63 64 65 66 67 68 69 69 69 69 69 69 68 68 67 66 66 65 65 65 66 66 68 69 70 72 73 75 77 80 81 82 84 84 85 85 86 88 90 91 91 91 90 91 92 93 93 92
52 52 51 52 52 52 53 54 55 56 57 57 56 56 56 56 57 57 57 58 58 58 56 55 55 54 54 54 55 56 57 58 59 60 61 63 65 66 67 68 69 69 70 70 69 69 68 68 67 66 65 63 63 62 61 61 61 61 62 63 65 67 69 71 73 75 78 81 83 85 86 87 88 88 89 90 92 93 94 93 93 94 95 96 96
51 51 51 52 52 53 54 54 55 56 56 56 56 55 56 56 57 57 58 58 59 58 56 55 55 55 55 56 57 59 60 61 62 63 64 65 66 67 68 68 69 68 68 67 66 64 63 62 61 60 59 58 58 57 57 57 57 57 57 58 60 62 64 66 68 71 74 77 81 84 86 88 90 91 91 92 92 93 95 96 97 97 97 98 99
51 51 52 53 53 53 54 54 54 55 55 55 55 56 56 57 57 58 58 59 58 57 56 56 56 57 58 59 60 61 63 64 64 65 65 66 66 66 66 66 65 64 62 61 59 58 57 56 56 55 55 54 54 53 53 53 53 53 53 54 55 57 59 61 63 66 69 72 76 79 83 86 89 92 93 94 94 95 95 97 98 99 100 101 101
51 52 52 53 53 53 53 54 54 55 54 55 55 56 57 57 58 58 59 59 58 57 57 57 58 59 60 61 62 63 64 65 65 65 65 65 64 64 63 61 60 59 57 56 55 54 53 52 51 51 50 50 50 50 50 50 50 50 50 51 51 53 54 56 58 61 64 67 70 73 77 81 85 89 92 95 97 97 97 97 98 99 101 102 103
52 52 52 52 53 54 54 54 54 54 54 55 55 56 57 57 58 59 59 59 58 58 58 59 59 60 61 61 62 63 64 65 65 65 64 63 61 60 58 57 55 54 53 52 51 50 49 48 47 47 46 46 46 46 46 47 47 47 48 48 49 50 51 52 54 56 59 62 65 68 71 74 78 83 88 92 96 98 99 100 100 100 101 102 103
52 52 53 54 54 54 53 53 52 53 53 55 56 56 57 58 59 60 60 59 59 59 59 59 60 60 61 62 63 63 64 65 65 64 62 60 58 56 55 53 52 51 50 49 47 46 46 45 44 44 44 44 44 44 44 44 45 45 46 46 47 47 48 49 51 52 54 57 59 62 65 68 72 76 80 85 90 94 98 100 101 101 102 102 103
53 53 54 53 52 51 50 50 51 52 53 55 56 57 58 59 60 60 59 59 59 59 59 60 60 61 62 62 63 64 64 64 63 61 59 57 55 54 52 51 50 48 47 45 44 44 43 43 43 43 43 43 43 43 43 43 43 44 44 45 45 46 46 47 48 49 51 53 55 57 60 63 66 69 73 77 82 87 92 96 99 101 102 103 104
52 51 51 50 49 48 48 49 51 52 53 55 57 58 60 60 60 59 59 58 58 59 60 61 62 62 63 63 64 64 63 61 60 58 56 55 53 52 50 48 47 45 44 43 42 42 42 41 41 41 41 41 41 41 41 42 42 42 43 43 44 45 46 46 47 48 49 50 51 53 55 57 60 63 66 70 74 78 83 87 92 96 99 101 103
47 47 47 47 46 47 48 49 51 53 55 57 59 60 60 60 59 58 58 58 59 60 61 62 63 64 64 64 64 63 61 59 57 55 54 52 50 48 46 45 43 42 42 41 41 41 41 40 40 40 40 40 40 40 40 40 40 40 41 41 42 43 44 45 46 47 48 49 50 50 51 53 55 58 61 64 67 71 75 79 83 87 91 94 98
44 44 45 46 46 47 49 50 52 54 57 59 60 60 59 58 57 57 58 58 59 61 62 63 64 65 65 64 63 61 59 57 55 53 51 49 47 44 43 41 41 40 40 40 39 39 39 39 39 39 39 39 39 39 39 40 40 40 40 40 40 41 42 43 44 45 46 48 49 50 50 51 52 53 56 58 61 64 68 71 75 79 82 86 90
43 44 45 46 47 49 51 52 54 56 58 58 58 57 56 57 57 58 59 59 60 61 63 64 64 65 64 63 61 59 57 55 52 50 48 45 43 41 40 40 39 39 39 38 38 38 38 38 38 38 38 38 38 39 39 40 40 40 40 40 40 40 40 41 41 42 43 45 46 48 49 50 51 51 52 54 56 58 61 64 67 71 74 78 81
43 45 47 48 50 51 53 54 56 56 56 56 55 55 56 57 58 59 60 61 62 62 63 64 65 64 63 61 59 57 55 52 50 47 44 42 40 39 39 39 38 38 38 37 37 37 37 37 38 38 38 38 38 39 40 40 40 41 41 41 41 41 40 40 40 40 41 42 43 44 45 47 49 51 51 52 52 54 55 58 60 63 67 70 74
45 47 48 50 52 53 55 56 56 56 56 55 55 55 56 57 58 59 61 62 63 64 65 65 64 62 60 59 57 54 52 49 46 43 40 39 38 37 38 38 38 38 37 37 36 37 37 37 37 37 37 38 38 39 40 40 40 40 40 41 41 41 41 40 40 39 40 40 41 42 42 43 45 47 49 50 51 51 52 54 55 57 60 63 66
47 49 51 52 54 55 56 57 56 56 55 55 56 56 56 57 58 59 61 63 64 65 65 64 62 60 58 56 54 51 49 46 43 40 38 37 36 36 37 37 37 36 36 36 37 37 37 37 37 37 37 38 38 39 39 39 40 40 40 40 40 40 40 40 39 39 39 39 40 41 41 42 42 43 44 46 48 49 50 51 52 54 56 57 60
50 52 53 55 56 57 57 57 56 55 55 56 56 56 57 58 59 60 62 63 64 65 64 62 60 58 56 54 51 48 45 42 39 37 36 36 36 36 36 36 36 36 36 36 37 37 37 37 37 38 38 38 38 38 39 39 40 40 40 40 39 39 39 39 39 39 38 39 39 39 40 41 41 41 41 42 43 45 47 48 50 51 52 54 56
53 55 56 58 58 58 57 55 54 54 55 56 57 57 58 59 60 61 63 64 64 63 62 61 59 57 54 51 49 45 42 40 37 36 35 35 35 35 35 36 36 36 36 37 37 37 37 38 38 38 38 38 38 39 39 40 40 41 40 40 39 39 38 38 38 38 38 38 38 38 39 40 41 41 41 40 40 41 43 45 47 48 50 51 53
56 58 59 59 58 56 55 54 54 54 55 56 57 58 59 60 61 62 63 63 63 62 61 59 56 54 51 48 45 42 39 37 36 35 35 35 34 35 35 36 36 36 37 37 37 38 38 39 39 39 39 39 39 39 40 41 41 41 41 40 40 39 38 38 37 37 37 37 37 37 38 39 40 41 41 41 40 40 40 41 43 45 47 48 50
59 60 59 57 55 54 53 54 54 55 56 57 58 59 60 61 62 63 63 62 62 61 59 56 54 51 48 45 42 39 37 36 35 35 35 34 34 35 36 36 36 37 37 38 38 38 39 39 39 39 39 40 40 40 41 42 42 42 42 41 40 40 39 38 37 36 36 36 36 36 37 37 38 39 40 41 41 41 40 40 40 42 44 45 47
59 58 56 54 53 53 53 54 55 55 56 58 59 60 61 62 62 62 62 61 60 59 56 54 51 48 45 42 39 37 36 35 35 35 34 34 35 36 36 37 37 37 38 38 39 39 40 40 40 40 40 41 41 41 42 42 43 43 43 42 42 41 40 38 37 36 36 36 36 36 36 36 36 37 38 39 40 40 40 40 39 39 41 42 44
56 54 53 53 53 53 54 54 55 57 58 59 60 61 62 62 62 61 61 60 58 56 53 51 48 45 42 39 37 36 35 35 35 34 34 35 36 36 37 37 37 38 39 39 40 41 41 41 40 41 41 42 42 43 43 44 43 43 43 43 42 41 40 39 38 37 36 36 36 36 35 35 35 35 36 37 38 39 39 40 39 39 38 39 41
53 52 52 53 53 54 55 56 57 58 59 60 61 62 62 61 61 61 60 58 55 53 50 47 44 41 39 38 37 36 36 35 35 35 35 36 36 36 37 37 37 38 39 40 41 42 42 42 42 42 43 43 44 44 45 45 45 44 44 43 42 41 40 39 38 37 37 37 36 36 36 35 35 34 34 34 35 36 37 38 39 38 38 38 39
52 52 52 53 54 55 56 57 58 59 60 61 61 61 61 61 61 59 57 54 52 49 46 43 41 39 38 38 37 37 37 36 36 36 36 36 37 36 36 37 37 38 39 40 41 42 42 42 43 43 44 45 45 46 46 46 46 46 45 44 43 42 41 40 39 38 38 37 37 37 36 36 35 35 34 33 33 34 35 36 36 37 37 37 37
52 53 53 54 55 57 57 58 59 60 61 61 61 61 61 60 59 56 53 51 48 46 43 41 39 38 38 38 38 38 38 38 38 37 37 37 37 37 36 37 37 37 38 40 41 42 42 42 43 44 45 46 46 47 47 47 47 47 46 45 44 43 42 41 40 40 39 39 38 38 38 37 37 36 35 34 33 33 34 34 34 35 35 36 36
53 54 55 56 57 58 58 59 60 60 60 60 60 60 59 58 56 53 51 48 45 43 41 40 40 39 39 39 39 39 39 39 39 38 38 37 37 37 37 37 37 38 39 40 40 41 42 43 44 45 46 46 47 48 48 49 48 48 47 46 45 44 43 42 42 41 41 41 40 40 40 40 39 38 37 36 35 35 35 34 34 34 34 35 35
55 56 57 58 58 59 59 60 60 59 59 60 59 58 56 54 52 50 47 44 42 41 41 41 40 40 40 40 40 40 40 40 39 38 38 37 37 37 37 38 38 39 39 40 40 41 42 43 45 46 46 47 48 49 49 50 50 49 48 47 46 45 45 44 43 43 43 43 43 43 43 42 42 41 39 38 38 37 37 36 36 35 35 35 35
57 58 59 59 59 60 60 59 59 59 59 58 57 55 52 50 48 46 44 42 41 41 41 41 41 41 41 41 40 40 40 40 39 39 38 37 37 37 38 38 39 40 40 40 41 42 43 44 45 47 47 48 49 50 51 51 51 50 49 48 47 46 46 45 45 45 45 45 45 45 45 45 44 44 43 42 41 41 40 39 38 37 36 35 35
59 59 59 59 59 59 59 59 59 58 57 55 53 51 48 46 44 42 42 42 41 41 41 42 42 42 41 41 40 40 40 39 39 38 38 38 38 38 38 39 39 40 41 42 42 43 44 45 46 47 49 50 51 52 52 52 52 51 50 49 48 47 46 46 47 47 48 48 48 48 47 47 47 46 46 46 45 44 43 42 40 39 38 37 36
Wind_Direction
270 272 273 274 276 278 279 281 282 283 284 285 286 287 288 289 290 292 293 294 296 297 297 298 298 298 297 296 295 293 293 295 299 303 309 314 318 322 322 311 300 293 275 243 218 211 215 223 223 219 219 221 224 225 222 222 229 232 231 234 235 235 238 243 246 249 251 252 253 252 252 255 258 260 263 265 267 269 271 273 275 276 278 278 279
272 274 275 276 278 280 282 283 284 284 285 285 286 287 288 290 291 293 294 295 296 297 297 296 296 296 295 294 292 291 290 292 296 300 305 311 316 320 321 309 292 280 257 229 217 215 218 225 225 221 220 222 228 235 235 233 234 233 230 233 238 239 239 244 247 250 252 254 255 254 251 252 255 258 261 262 263 265 268 272 275 278 280 280 278
273 274 275 277 280 281 282 283 284 285 285 286 287 288 290 292 293 295 296 296 296 296 295 294 293 292 291 290 289 288 288 289 293 297 302 307 312 316 319 310 287 271 252 231 221 220 220 224 227 226 223 221 226 236 241 242 240 237 232 230 234 236 236 238 240 242 246 250 253 254 253 251 252 255 257 260 263 265 266 269 274 278 280 276 271
273 275 277 279 281 282 282 283 284 286 287 288 289 291 293 294 295 296 297 297 297 296 295 293 291 290 288 288 287 286 285 285 289 294 298 302 307 310 315 312 290 267 252 236 227 225 225 225 227 229 227 225 227 233 239 242 241 239 236 235 237 239 238 237 239 243 247 250 252 254 254 253 254 255 258 262 265 267 268 271 274 277 277 273 271
274 276 278 280 282 282 283 284 285 286 287 289 291 292 294 295 296 297 297 297 298 298 297 295 292 289 287 286 285 284 282 282 284 289 293 296 301 305 309 311 299 272 253 241 233 230 229 228 228 230 229 229 230 233 238 243 244 241 239 239 241 243 242 239 240 247 256 260 260 261 262 262 262 262 263 264 266 268 270 271 273 274 274 273 273
275 277 279 280 282 283 284 284 285 286 288 289 291 292 294 296 297 298 298 299 299 299 298 296 294 291 288 285 283 282 280 279 280 284 288 291 295 299 301 305 304 285 260 245 238 234 233 232 231 232 232 232 233 234 238 244 246 243 240 240 241 243 243 240 236 240 251 257 259 260 261 261 261 261 262 263 266 269 270 270 270 271 271 270 270
276 278 279 281 283 284 285 284 285 287 288 289 290 291 293 295 296 298 299 299 299 299 297 296 295 293 290 286 282 281 279 277 277 279 282 286 289 292 294 296 299 295 276 254 243 238 237 236 235 235 235 235 235 236 238 242 244 243 240 238 239 241 242 240 236 236 242 247 250 253 253 254 255 253 254 259 263 263 263 265 266 268 268 267 267
276 278 280 282 284 285 285 285 286 287 288 289 289 290 291 294 296 297 298 298 298 297 296 295 293 292 290 287 282 280 278 277 276 276 278 281 284 287 289 290 291 292 287 271 253 244 241 240 240 241 240 239 239 240 242 244 245 245 242 239 239 239 240 240 238 239 241 242 247 251 249 249 250 249 251 260 265 262 261 263 266 268 269 269 270
277 279 280 282 284 284 285 285 286 288 289 289 289 290 292 294 295 296 296 296 296 295 294 293 292 290 289 286 283 280 278 277 276 276 276 277 279 281 284 286 286 286 286 281 269 255 247 244 243 244 245 244 244 244 245 247 248 247 246 244 242 241 240 241 242 243 242 240 243 249 247 245 247 248 251 259 264 264 264 267 269 270 270 270 272
277 279 280 281 283 284 284 285 286 287 288 288 289 291 292 293 294 295 295 294 294 294 293 292 291 289 287 286 284 281 280 279 277 277 276 276 277 277 279 281 282 281 280 280 277 269 259 251 247 246 247 247 248 247 247 248 248 249 247 244 244 245 244 243 244 246 244 239 238 243 243 241 243 246 249 253 257 259 262 265 268 269 270 271 272
278 279 280 281 282 283 283 284 285 286 287 288 289 291 292 293 293 294 294 295 295 294 293 291 290 288 287 286 284 283 282 281 279 278 277 276 276 276 276 277 278 279 278 276 275 273 269 262 256 252 250 249 249 249 249 248 248 247 245 242 242 243 244 244 245 247 246 241 237 239 243 243 244 247 249 252 255 257 259 262 265 268 269 270 269
277 279 280 281 281 282 282 283 284 285 286 288 289 290 291 292 293 294 295 295 295 295 294 293 290 288 286 285 285 284 283 282 281 279 277 276 276 275 275 275 276 276 276 276 274 272 270 267 264 260 257 255 253 251 251 250 249 248 246 244 242 241 243 244 244 244 245 242 238 238 243 247 250 252 253 255 257 259 260 261 263 264 266 266 266
277 278 279 280 281 281 282 282 283 284 285 286 288 290 291 292 293 295 295 296 295 295 295 294 292 289 287 286 285 284 284 283 282 280 278 276 275 275 275 275 275 275 275 275 274 273 272 269 266 263 261 259 258 256 254 252 251 250 248 247 244 242 242 243 243 243 243 243 241 240 243 248 252 254 255 257 258 260 261 262 262 262 262 262 263
276 277 278 279 280 280 281 281 281 282 284 286 287 289 291 292 293 294 295 295 295 295 294 294 293 291 288 287 286 285 284 283 282 280 279 277 276 276 275 275 275 275 275 275 274 273 273 272 270 267 264 261 259 259 257 256 254 253 251 249 248 246 244 244 244 244 243 243 243 242 244 247 250 253 255 256 257 259 260 262 262 261 260 261 262
275 277 278 279 279 280 280 280 280 281 283 285 287 289 290 292 293 295 295 295 294 294 294 294 293 292 291 289 288 287 285 284 283 281 279 278 277 277 277 276 276 276 276 276 275 275 274 273 272 270 268 265 262 260 258 257 256 255 254 252 251 250 249 247 247 247 247 246 245 244 244 246 248 251 252 254 256 257 258 259 259 259 260 261 262
275 277 278 279 279 279 279 279 279 281 283 285 287 288 290 291 293 294 294 294 293 293 293 293 293 293 293 291 289 288 287 286 285 284 282 280 279 278 277 277 277 276 276 276 276 276 275 274 273 272 270 268 266 264 261 259 256 255 254 253 253 253 252 251 250 250 250 249 248 247 247 247 247 249 250 252 254 255 255 256 256 256 257 259 261
275 276 277 278 278 278 278 278 279 281 283 285 287 288 289 291 293 293 292 292 292 292 292 293 292 292 293 293 291 289 288 287 287 286 285 283 282 280 279 278 278 277 277 277 277 276 276 275 274 273 272 270 268 266 264 262 260 257 255 253 252 251 252 252 252 252 252 251 251 250 250 249 249 250 250 251 252 253 254 255 255 255 256 257 258
274 275 276 277 277 276 276 277 279 281 283 285 286 287 289 291 292 291 291 290 291 291 292 292 291 290 290 292 291 290 288 287 287 286 285 285 284 283 282 281 280 280 279 278 278 277 276 276 275 274 273 272 270 268 265 263 262 261 259 256 253 251 250 250 250 251 252 252 253 253 253 252 252 252 252 252 252 252 253 254 255 256 256 257 258
273 274 275 275 275 275 276 278 280 282 283 284 285 286 288 290 291 290 289 289 290 292 293 293 292 291 290 290 290 289 287 287 286 285 285 284 283 283 282 282 281 280 280 279 278 278 277 276 275 274 273 272 270 268 266 264 262 260 260 259 257 254 251 249 248 249 249 250 251 252 253 254 254 254 254 254 254 253 253 253 254 255 256 257 258
273 273 273 273 274 275 277 279 280 282 282 283 284 286 287 289 289 289 289 290 292 294 294 294 294 293 292 291 289 287 286 285 285 284 284 283 283 282 282 281 281 280 279 279 278 278 277 276 275 275 274 272 271 269 267 265 263 261 259 258 257 256 254 252 250 249 248 248 248 250 251 252 253 254 254 254 254 254 254 253 253 254 255 256 257
272 272 272 272 274 276 278 279 280 281 281 282 284 286 287 288 288 288 289 292 294 295 295 295 294 294 293 291 289 287 285 284 284 284 284 283 283 283 282 282 281 281 280 280 279 278 278 277 276 275 274 273 272 271 269 267 265 263 260 258 256 255 254 253 252 251 249 248 247 247 248 249 250 251 252 253 253 252 252 253 253 254 255 255 256
271 271 271 273 275 276 277 278 279 279 280 282 284 285 286 287 287 289 291 293 295 295 295 294 294 293 292 291 289 288 287 286 285 285 284 284 284 284 284 284 283 283 282 282 281 281 280 279 278 277 276 275 274 273 271 270 268 265 263 260 258 255 253 252 251 251 250 249 248 247 247 247 248 249 249 251 251 251 251 250 250 251 253 254 255
271 271 272 273 274 276 277 277 278 279 280 282 284 285 286 286 288 290 292 294 295 296 295 294 293 292 291 291 290 289 289 288 288 287 287 287 287 287 287 287 287 287 287 286 286 285 285 284 283 282 281 279 278 276 274 272 270 268 265 263 260 257 255 252 250 249 249 249 249 248 247 246 246 247 247 248 249 250 250 249 249 249 250 251 252
272 272 273 274 274 275 276 276 277 279 281 282 283 284 285 287 289 291 292 293 295 296 295 293 293 292 292 292 292 291 291 291 291 292 292 292 292 292 292 292 292 292 291 291 290 290 289 288 287 286 284 283 281 279 277 275 272 270 267 265 262 260 257 255 252 250 248 248 248 248 248 247 246 245 245 246 247 248 248 248 248 249 249 249 250
272 272 273 273 274 274 275 277 278 280 281 282 283 284 286 287 289 291 292 294 296 296 295 294 293 293 293 294 294 295 295 295 295 296 296 296 296 295 295 295 294 293 293 292 292 291 290 289 288 287 286 284 283 281 279 277 275 272 269 267 264 262 260 257 255 252 250 248 247 246 247 247 247 246 245 245 245 246 247 248 248 248 249 249 250
270 271 271 272 273 275 276 277 279 280 280 281 283 284 286 288 289 291 293 295 297 296 295 294 295 295 296 297 297 298 298 297 297 297 297 297 296 296 296 295 294 294 293 293 292 291 291 290 289 288 287 285 284 282 280 278 276 274 272 269 266 264 262 260 258 255 253 251 249 247 246 246 246 247 247 246 245 245 246 247 248 248 248 249 250
269 270 272 273 274 275 276 278 278 279 280 281 283 285 287 288 290 292 294 296 297 296 296 296 297 298 298 299 299 298 298 298 298 298 297 297 297 297 296 296 295 295 295 294 294 293 293 292 291 290 289 288 286 285 283 281 279 276 274 271 269 266 264 262 260 258 256 254 252 250 248 246 245 245 246 247 246 246 245 246 247 248 248 249 250
270 271 272 273 274 275 276 278 279 280 281 282 284 285 287 289 292 294 296 297 297 298 298 298 299 299 299 299 298 298 298 298 299 299 299 299 299 299 299 298 298 297 297 296 296 295 295 294 293 292 291 290 289 287 286 284 282 280 277 275 272 269 267 264 262 260 259 257 255 253 251 249 247 246 245 246 246 247 246 246 246 247 248 249 250
270 271 272 273 274 276 277 278 279 279 280 282 284 286 289 291 294 295 297 298 298 298 298 298 298 298 298 299 299 300 300 301 301 302 302 302 301 301 300 299 299 298 298 298 297 296 296 295 294 293 292 291 291 290 288 287 286 284 282 279 277 274 271 268 265 263 261 259 257 256 254 252 250 248 247 246 246 247 247 247 247 247 248 249 250
270 271 272 273 274 276 276 277 277 279 281 283 286 288 290 293 295 296 297 298 298 298 298 298 298 299 299 300 301 302 303 303 304 304 304 303 303 302 301 301 300 300 300 299 298 298 297 297 297 296 295 295 294 293 292 290 289 288 286 284 281 279 276 273 271 268 265 262 260 258 256 255 253 251 250 248 247 247 247 247 247 247 247 248 249
269 270 271 272 273 274 275 276 278 280 283 285 287 290 292 294 296 296 296 296 296 297 298 299 299 300 301 302 303 304 304 305 305 305 305 304 304 303 303 302 302 301 300 300 300 300 300 299 299 298 298 297 296 295 293 292 291 290 289 287 286 284 281 279 276 273 270 268 265 262 260 258 256 254 253 251 250 249 248 248 248 248 248 248 248
268 269 270 271 272 274 276 278 280 282 285 287 289 291 293 294 295 295 295 296 297 298 299 300 301 302 303 304 304 305 305 306 306 306 305 305 305 304 304 302 301 301 301 302 302 302 301 301 300 299 298 298 297 296 295 294 293 291 290 289 288 286 285 283 281 279 276 273 270 267 265 262 260 257 255 254 253 251 250 250 249 249 249 249 249
266 268 270 272 274 276 278 280 283 285 287 289 291 292 293 294 294 295 296 297 299 300 301 302 303 303 304 305 305 306 306 306 306 306 305 305 304 303 302 301 301 302 303 303 302 302 301 301 301 300 300 300 299 299 298 297 296 295 293 291 290 288 287 285 284 283 281 279 276 273 270 267 265 262 259 257 255 254 253 252 251 251 250 250 250
268 270 273 275 277 279 281 283 286 288 289 291 292 292 293 294 295 297 298 299 300 301 302 302 303 304 305 306 306 307 307 307 306 306 305 304 303 301 300 301 301 302 302 302 302 302 302 302 303 303 302 302 302 301 301 300 300 299 298 296 294 292 290 288 287 285 284 283 281 279 277 273 270 267 265 262 259 257 256 255 254 253 252 251 251
271 273 275 277 279 282 284 286 288 289 290 291 292 293 294 296 297 298 299 300 300 301 302 303 304 305 306 307 307 307 307 307 306 305 304 302 301 300 300 301 301 301 301 301 301 302 303 304 304 304 304 305 305 305 305 304 304 303 302 301 299 296 294 292 290 288 286 284 283 282 281 279 277 274 271 268 265 262 260 258 256 255 254 253 253
273 275 277 279 282 284 286 288 289 291 292 292 293 294 296 297 298 299 299 300 301 302 303 304 305 306 307 307 307 307 307 306 305 304 302 300 300 300 301 301 300 299 299 299 301 303 304 305 306 306 307 308 308 308 308 308 307 307 306 305 303 301 299 297 295 292 290 288 286 283 281 280 280 278 276 274 271 268 265 263 260 258 257 255 254
276 278 280 282 284 287 289 291 292 293 293 294 294 295 296 297 298 299 300 301 302 303 304 305 305 306 307 307 307 306 305 305 303 301 299 298 299 300 300 299 298 298 299 301 303 304 306 307 308 308 309 309 309 309 309 309 309 309 308 308 307 305 303 301 299 297 295 293 291 288 285 283 281 280 279 277 276 273 271 268 265 263 260 258 256
279 281 284 286 288 290 292 294 294 294 294 294 294 295 296 297 298 300 301 301 302 303 304 305 305 306 306 306 306 305 304 303 301 299 297 297 298 299 299 298 298 299 300 302 304 306 308 309 310 311 311 310 310 310 310 310 310 310 310 309 308 307 306 305 303 301 300 298 296 294 291 289 285 283 281 280 278 277 274 272 269 267 264 262 260
283 285 288 290 292 293 294 294 293 293 293 293 294 295 297 298 299 300 300 301 302 303 304 305 306 306 306 306 305 304 302 301 298 297 296 297 298 299 299 299 299 300 301 303 305 307 310 312 312 312 311 310 311 311 312 312 312 312 311 311 310 309 308 307 306 304 302 301 299 298 296 294 291 288 285 282 281 279 277 275 273 270 268 266 264
287 289 290 292 292 293 293 292 292 292 293 294 295 296 298 298 299 300 301 302 302 303 304 305 306 306 306 305 304 303 301 299 297 297 297 298 299 299 300 300 300 301 302 304 306 309 312 313 313 312 312 312 313 314 314 314 314 314 314 313 312 312 310 309 308 306 305 303 302 301 300 298 297 295 292 288 285 282 280 278 276 274 271 269 267
288 290 291 291 291 291 291 291 291 292 293 294 296 297 298 299 299 300 301 302 302 303 304 305 305 305 304 304 303 301 299 298 297 298 298 298 299 299 300 300 301 302 303 305 308 311 313 314 314 313 313 314 315 316 316 316 316 316 315 315 315 314 313 311 310 308 307 306 305 304 303 301 300 299 297 295 292 288 285 282 280 277 275 272 270
288 289 289 289 289 289 289 290 291 292 294 295 296 297 298 299 300 301 301 302 302 303 304 304 304 304 303 302 301 299 298 297 298 298 298 298 299 299 300 301 302 303 305 307 309 311 313 313 313 314 315 316 317 318 318 318 318 317 317 317 317 316 315 313 312 310 309 308 307 307 305 304 303 302 300 299 297 295 291 288 285 282 279 277 274
286 287 287 287 287 288 289 290 292 293 294 295 296 297 298 299 300 301 301 302 302 303 304 304 303 303 302 301 299 298 297 298 298 297 297 297 298 298 300 301 303 305 307 308 310 311 312 313 314 314 315 317 318 319 320 319 319 319 319 319 319 318 317 315 314 313 312 311 310 309 308 307 306 304 303 301 300 298 296 293 290 287 284 281 279
284 285 285 286 287 288 290 291 292 294 295 296 297 298 299 300 300 301 301 302 302 303 303 303 302 302 300 299 298 297 297 297 297 296 296 297 297 298 299 301 304 306 307 308 310 311 312 313 314 316 317 318 319 320 320 320 320 321 321 320 319 318 318 317 317 316 315 314 312 311 310 309 308 307 306 305 303 302 300 298 295 292 289 286 283
283 284 285 287 288 290 291 292 293 294 295 296 297 298 299 300 300 300 301 301 302 302 302 301 301 300 298 298 297 297 297 297 297 296 297 297 297 298 299 301 303 305 306 308 309 311 312 314 316 317 318 319 320 321 321 321 321 321 321 321 320 319 319 318 318 318 317 316 315 314 313 312 311 310 309 308 306 305 303 302 300 297 294 291 288
283 285 286 288 289 290 292 293 294 295 296 297 298 298 299 299 299 300 300 301 301 300 300 299 298 297 297 297 297 297 297 297 297 297 297 297 297 298 299 300 302 304 306 308 309 311 313 315 316 318 319 320 321 321 321 322 322 323 322 322 321 321 321 320 320 319 319 318 317 317 317 316 315 314 312 311 310 308 307 306 304 302 299 297 293
284 286 287 289 290 291 292 293 294 295 296 297 297 298 298 299 299 299 299 299 299 299 298 297 297 297 297 297 297 297 297 298 298 298 298 298 298 298 298 299 301 303 305 307 309 311 314 315 316 317 319 320 320 321 322 323 323 323 323 323 322 322 322 322 322 321 321 320 320 320 320 320 319 318 317 315 314 313 311 309 308 306 304 301 299
285 287 288 289 290 291 292 293 294 295 296 296 297 297 298 298 298 299 299 299 298 297 297 297 297 297 297 298 298 298 298 298 298 298 298 298 297 297 298 299 301 303 305 307 309 312 314 315 316 317 318 320 321 322 323 323 324 324 323 323 323 323 323 323 323 323 323 323 323 324 323 323 322 322 321 321 320 318 316 314 312 310 309 306 304
286 287 288 289 290 291 292 293 294 294 295 296 297 297 297 297 297 298 298 297 297 296 296 297 297 297 297 297 297 297 297 297 297 297 296 296 296 296 297 299 302 304 306 308 310 312 314 315 316 317 318 320 321 322 323 324 324 324 324 324 324 324 324 324 324 324 324 325 325 326 326 325 325 325 325 324 324 323 321 319 317 315 313 311 309
285 286 288 289 290 291 292 293 293 294 295 296 296 296 295 296 296 296 295 295 295 295 295 295 296 296 296 296 296 296 296 296 296 295 295 295 296 297 299 301 304 306 308 310 311 313 314 315 316 317 318 320 321 322 323 324 324 324 324 324 325 325 325 325 325 325 325 326 326 327 327 327 327 327 327 327 326 325 324 322 320 318 317 315 313
285 287 288 289 290 291 291 292 293 294 294 294 294 293 293 293 293 293 293 293 293 293 294 294 294 295 295 295 295 295 295 295 295 295 296 296 297 299 302 304 306 308 310 311 312 313 314 315 316 317 319 320 321 322 323 323 324 324 324 324 325 325 325 325 325 326 326 326 327 327 327 327 328 328 328 328 328 327 325 323 322 320 319 318 317
Height
10656 10657 10656 10655 10655 10654 10654 10654 10653 10652 10651 10650 10649 10649 10648 10648 10647 10646 10645 10644 10643 10642 10641 10640 10639 10638 10637 10636 10635 10634 10632 10631 10630 10629 10627 10623 10620 10618 10615 10612 10611 10609 10607 10606 10606 10607 10608 10609 10610 10611 10612 10613 10615 10617 10619 10621 10622 10623 10624 10624 10626 10628 10629 10631 10633 10634 10635 10636 10637 10638 10640 10641 10643 10644 10645 10645 10645 10644 10643 10641 10641 10642 10642 10642 10643
10652 10652 10651 10650 10650 10650 10649 10649 10648 10647 10646 10645 10644 10644 10643 10642 10642 10641 10640 10638 10637 10636 10635 10634 10633 10633 10632 10631 10630 10630 10629 10627 10626 10625 10624 10621 10618 10615 10613 10611 10609 10608 10607 10606 10606 10606 10607 10607 10608 10609 10610 10611 10613 10615 10616 10618 10619 10620 10621 10621 10623 10625 10626 10627 10629 10629 10630 10632 10633 10634 10636 10637 10639 10640 10640 10640 10640 10639 10638 10636 10635 10636 10636 10636 10636
10647 10647 10646 10646 10645 10645 10644 10643 10643 10642 10641 10640 10639 10639 10638 10637 10636 10635 10634 10632 10631 10631 10630 10629 10628 10628 10627 10626 10626 10625 10624 10623 10622 10621 10620 10618 10616 10613 10611 10609 10607 10607 10606 10605 10605 10605 10605 10606 10606 10607 10608 10609 10611 10612 10613 10614 10616 10617 10618 10619 10620 10620 10622 10623 10624 10625 10626 10628 10629 10630 10632 10633 10634 10635 10635 10635 10635 10633 10632 10631 10630 10631 10631 10631 10630
10642 10642 10641 10641 10640 10640 10639 10638 10638 10637 10636 10635 10634 10633 10632 10631 10630 10629 10628 10627 10625 10625 10624 10624 10623 10622 10622 10621 10621 10621 10620 10619 10618 10617 10616 10615 10613 10611 10609 10607 10605 10604 10604 10603 10603 10602 10603 10603 10604 10604 10605 10606 10607 10608 10609 10610 10611 10612 10614 10615 10615 10615 10617 10618 10619 10621 10622 10623 10625 10626 10627 10628 10629 10629 10629 10629 10629 10627 10626 10626 10626 10626 10626 10625 10624
10637 10637 10637 10636 10635 10635 10634 10633 10633 10632 10631 10630 10629 10628 10627 10626 10625 10624 10623 10621 10620 10620 10619 10618 10618 10617 10617 10616 10616 10616 10616 10615 10614 10612 10611 10610 10609 10608 10606 10604 10603 10601 10601 10600 10600 10600 10600 10600 10600 10601 10601 10602 10602 10603 10604 10605 10606 10607 10608 10609 10609 10610 10612 10613 10615 10617 10618 10618 10619 10620 10621 10622 10623 10623 10624 10623 10622 10621 10621 10621 10621 10621 10621 10620 10618
10633 10632 10632 10631 10630 10630 10629 10628 10628 10627 10626 10625 10624 10623 10622 10621 10620 10619 10618 10617 10616 10615 10614 10613 10613 10612 10611 10611 10610 10610 10610 10610 10609 10608 10607 10606 10605 10604 10603 10601 10600 10598 10597 10597 10597 10597 10596 10596 10596 10596 10597 10597 10598 10598 10600 10601 10601 10602 10603 10603 10604 10605 10606 10608 10610 10612 10613 10613 10613 10613 10614 10615 10616 10617 10617 10616 10616 10616 10615 10616 10616 10615 10614 10614 10612
10628 10628 10627 10626 10625 10625 10624 10623 10623 10622 10621 10620 10619 10618 10617 10616 10615 10614 10613 10612 10611 10610 10609 10609 10608 10607 10606 10606 10605 10605 10605 10605 10604 10603 10602 10601 10600 10600 10599 10598 10596 10595 10594 10593 10593 10593 10592 10592 10592 10592 10592 10593 10593 10594 10595 10595 10596 10597 10597 10598 10599 10600 10601 10603 10604 10606 10607 10608 10608 10609 10608 10608 10609 10611 10611 10610 10609 10610 10609 10609 10609 10609 10609 10608 10606
10624 10623 10622 10621 10621 10620 10619 10618 10618 10617 10616 10615 10614 10613 10612 10611 10610 10609 10608 10607 10606 10605 10604 10604 10603 10602 10601 10600 10599 10599 10599 10599 10598 10598 10597 10596 10595 10595 10594 10593 10592 10591 10590 10589 10589 10589 10588 10588 10588 10588 10588 10588 10588 10589 10590 10590 10591 10592 10593 10593 10594 10595 10596 10598 10598 10600 10601 10603 10604 10604 10603 10602 10603 10605 10605 10604 10603 10602 10601 10601 10602 10602 10603 10603 10601
10619 10618 10617 10616 10615 10615 10614 10613 10613 10612 10611 10610 10609 10608 10607 10606 10605 10604 10603 10602 10601 10600 10599 10598 10598 10597 10596 10595 10594 10593 10593 10593 10592 10592 10591 10591 10590 10589 10589 10588 10587 10587 10586 10585 10584 10584 10584 10583 10583 10583 10583 10582 10583 10584 10584 10585 10586 10586 10587 10588 10589 10590 10591 10592 10592 10593 10596 10597 10597 10598 10597 10596 10596 10597 10598 10597 10595 10594 10593 10593 10595 10596 10596 10596 10595
10614 10613 10612 10611 10610 10609 10609 10608 10607 10606 10605 10604 10603 10603 10602 10601 10600 10599 10598 10597 10596 10595 10594 10593 10592 10591 10590 10589 10588 10587 10587 10587 10586 10586 10585 10585 10584 10583 10583 10582 10581 10581 10581 10580 10579 10579 10578 10578 10578 10577 10577 10577 10577 10578 10579 10579 10580 10580 10581 10582 10583 10584 10585 10585 10586 10586 10589 10590 10590 10591 10591 10589 10588 10589 10589 10588 10587 10588 10587 10586 10587 10588 10588 10588 10587
10609 10608 10606 10605 10605 10604 10603 10603 10602 10601 10600 10599 10598 10597 10597 10596 10595 10594 10592 10591 10590 10589 10588 10586 10585 10584 10584 10583 10582 10581 10581 10580 10580 10579 10579 10578 10578 10577 10576 10576 10575 10575 10574 10574 10574 10573 10573 10572 10572 10571 10571 10571 10571 10571 10572 10573 10573 10574 10575 10575 10576 10577 10578 10579 10579 10579 10580 10582 10582 10583 10583 10582 10581 10581 10581 10580 10580 10580 10580 10580 10581 10581 10581 10581 10579
10603 10602 10601 10600 10599 10599 10598 10597 10596 10595 10595 10594 10593 10592 10591 10590 10589 10588 10587 10585 10584 10582 10581 10580 10579 10578 10577 10576 10575 10574 10573 10573 10572 10572 10571 10571 10570 10570 10570 10569 10568 10568 10567 10567 10567 10567 10566 10566 10566 10565 10564 10564 10564 10564 10565 10565 10566 10567 10567 10568 10569 10570 10571 10571 10572 10572 10572 10573 10574 10574 10575 10574 10574 10574 10574 10573 10573 10573 10573 10574 10574 10574 10574 10573 10572
10597 10596 10595 10594 10594 10593 10592 10592 10591 10590 10589 10589 10588 10587 10586 10584 10583 10582 10580 10579 10577 10576 10574 10573 10571 10571 10570 10569 10568 10567 10566 10565 10564 10564 10563 10563 10563 10562 10562 10562 10561 10561 10560 10560 10559 10559 10559 10559 10559 10559 10558 10557 10556 10556 10557 10557 10558 10559 10559 10560 10561 10562 10563 10563 10564 10564 10563 10564 10566 10566 10566 10566 10566 10566 10566 10566 10566 10566 10566 10566 10567 10567 10566 10565 10564
10591 10590 10590 10589 10588 10587 10587 10586 10585 10584 10584 10583 10582 10581 10580 10579 10577 10576 10574 10573 10571 10569 10568 10566 10564 10563 10562 10561 10560 10559 10558 10557 10556 10556 10555 10555 10555 10554 10554 10554 10554 10553 10552 10552 10552 10552 10552 10551 10551 10551 10551 10550 10549 10548 10548 10549 10549 10550 10550 10551 10552 10553 10554 10554 10555 10555 10555 10556 10557 10558 10558 10558 10557 10557 10558 10558 10559 10559 10559 10559 10559 10558 10557 10555 10554
10585 10585 10584 10583 10582 10582 10581 10580 10579 10579 10579 10578 10577 10576 10574 10573 10571 10570 10568 10567 10565 10563 10562 10560 10558 10556 10554 10553 10552 10551 10550 10549 10549 10548 10547 10547 10546 10546 10546 10545 10545 10545 10544 10544 10544 10543 10543 10543 10543 10543 10543 10542 10542 10541 10540 10540 10540 10540 10541 10541 10542 10543 10544 10544 10545 10546 10546 10546 10547 10548 10549 10549 10549 10549 10549 10550 10550 10551 10551 10551 10550 10549 10547 10546 10545
10579 10579 10578 10577 10577 10576 10575 10574 10573 10573 10573 10573 10571 10570 10568 10567 10565 10564 10562 10561 10559 10557 10556 10554 10552 10550 10548 10546 10545 10544 10542 10541 10541 10540 10539 10539 10538 10538 10537 10537 10536 10536 10536 10535 10535 10534 10534 10534 10534 10534 10534 10533 10533 10532 10532 10531 10531 10531 10530 10531 10532 10532 10533 10533 10534 10535 10536 10536 10536 10537 10537 10538 10538 10538 10539 10540 10541 10542 10542 10542 10541 10540 10538 10537 10536
10573 10572 10572 10571 10571 10570 10569 10568 10568 10568 10568 10567 10565 10564 10562 10561 10559 10558 10556 10555 10553 10551 10549 10547 10545 10543 10541 10539 10538 10536 10535 10534 10533 10532 10531 10530 10529 10529 10528 10528 10527 10527 10527 10526 10525 10525 10524 10524 10524 10524 10524 10524 10524 10523 10522 10522 10521 10521 10520 10520 10521 10522 10522 10522 10523 10524 10524 10525 10525 10525 10526 10526 10527 10527 10527 10529 10531 10532 10532 10532 10531 10529 10529 10529 10528
10566 10566 10566 10565 10564 10563 10563 10563 10563 10563 10562 10561 10559 10558 10556 10555 10553 10552 10550 10548 10546 10544 10543 10541 10539 10537 10535 10533 10531 10529 10527 10526 10525 10524 10523 10522 10521 10520 10519 10519 10518 10518 10517 10516 10515 10515 10514 10514 10513 10513 10513 10513 10513 10513 10512 10512 10511 10510 10509 10509 10510 10511 10511 10511 10511 10511 10512 10513 10513 10513 10514 10515 10516 10516 10516 10517 10519 10521 10522 10522 10520 10518 10519 10519 10518
10560 10560 10559 10558 10557 10557 10557 10558 10558 10557 10556 10554 10553 10551 10550 10549 10547 10545 10544 10542 10540 10538 10536 10534 10532 10530 10528 10526 10524 10522 10520 10519 10517 10516 10515 10513 10512 10511 10510 10509 10509 10508 10507 10506 10505 10504 10504 10503 10502 10502 10502 10501 10501 10501 10500 10500 10500 10499 10498 10498 10498 10499 10499 10499 10499 10499 10500 10501 10501 10501 10502 10503 10504 10505 10505 10506 10507 10509 10511 10511 10509 10508 10509 10509 10507
10553 10553 10552 10552 10551 10552 10553 10553 10552 10551 10549 10548 10547 10545 10544 10543 10541 10539 10537 10535 10533 10531 10529 10527 10524 10522 10520 10518 10516 10514 10513 10511 10509 10508 10506 10505 10503 10502 10501 10500 10499 10498 10497 10496 10495 10494 10493 10492 10491 10490 10489 10488 10488 10487 10487 10487 10487 10487 10486 10486 10486 10486 10486 10486 10487 10487 10487 10488 10489 10489 10489 10490 10491 10492 10493 10494 10495 10497 10498 10499 10499 10497 10498 10498 10497
10547 10546 10546 10546 10546 10547 10547 10547 10546 10544 10543 10542 10540 10539 10538 10536 10534 10532 10530 10529 10527 10524 10522 10519 10517 10515 10513 10511 10509 10507 10505 10503 10501 10499 10497 10496 10494 10493 10491 10490 10489 10487 10486 10485 10483 10482 10481 10479 10478 10477 10476 10475 10474 10473 10473 10472 10472 10472 10472 10472 10473 10473 10473 10473 10473 10474 10474 10475 10476 10476 10477 10478 10479 10480 10480 10481 10483 10485 10486 10486 10487 10486 10485 10486 10487
10541 10541 10541 10541 10542 10542 10541 10541 10539 10538 10537 10536 10534 10533 10531 10530 10528 10526 10524 10522 10520 10517 10515 10512 10510 10508 10506 10503 10501 10499 10497 10495 10493 10491 10489 10487 10485 10483 10481 10480 10478 10476 10475 10473 10471 10470 10468 10466 10464 10463 10462 10461 10460 10459 10458 10457 10457 10457 10457 10457 10457 10458 10459 10459 10459 10459 10460 10461 10462 10463 10464 10465 10466 10468 10468 10468 10469 10472 10474 10474 10474 10474 10473 10474 10476
10535 10536 10536 10536 10536 10536 10536 10535 10533 10532 10531 10529 10528 10526 10525 10523 10521 10519 10517 10515 10513 10510 10508 10505 10503 10501 10498 10496 10494 10492 10489 10487 10485 10483 10481 10479 10476 10474 10471 10469 10467 10465 10463 10460 10458 10456 10454 10452 10450 10448 10447 10446 10444 10444 10443 10442 10441 10441 10441 10441 10441 10442 10442 10443 10444 10445 10445 10446 10447 10448 10450 10452 10453 10455 10455 10456 10456 10458 10461 10462 10462 10461 10461 10462 10464
10530 10531 10531 10531 10531 10531 10530 10528 10527 10526 10524 10523 10521 10520 10518 10517 10515 10513 10511 10508 10506 10503 10501 10498 10496 10494 10491 10489 10487 10484 10481 10479 10477 10475 10472 10470 10467 10464 10461 10458 10455 10453 10450 10447 10445 10442 10440 10438 10436 10434 10432 10430 10429 10428 10427 10426 10426 10425 10425 10425 10425 10425 10426 10427 10428 10429 10430 10431 10432 10433 10435 10437 10439 10441 10442 10443 10443 10444 10446 10448 10449 10449 10449 10450 10452
10525 10525 10525 10525 10525 10525 10523 10522 10521 10519 10518 10516 10515 10513 10512 10510 10508 10506 10504 10501 10499 10496 10493 10491 10489 10486 10484 10482 10479 10476 10473 10471 10468 10466 10464 10461 10458 10454 10451 10448 10444 10441 10438 10435 10433 10430 10427 10425 10423 10420 10418 10417 10415 10414 10413 10412 10411 10411 10411 10410 10410 10410 10410 10411 10412 10413 10414 10416 10417 10418 10420 10421 10424 10426 10428 10429 10430 10431 10431 10433 10435 10435 10435 10436 10438
10519 10520 10520 10520 10519 10518 10517 10516 10514 10513 10511 10510 10508 10507 10506 10504 10501 10499 10497 10494 10492 10489 10486 10484 10481 10479 10477 10474 10471 10468 10465 10462 10460 10458 10455 10452 10448 10445 10441 10437 10434 10431 10427 10424 10421 10419 10416 10413 10411 10408 10406 10405 10403 10402 10400 10399 10399 10398 10397 10397 10397 10396 10397 10397 10398 10398 10399 10400 10401 10403 10405 10407 10408 10410 10412 10414 10416 10417 10418 10419 10420 10421 10421 10422 10423
10514 10514 10514 10513 10513 10512 10510 10509 10508 10506 10505 10504 10502 10501 10499 10497 10495 10492 10490 10487 10484 10482 10479 10476 10474 10472 10469 10467 10464 10460 10457 10454 10451 10449 10446 10443 10439 10435 10431 10427 10423 10420 10417 10414 10411 10409 10406 10403 10401 10398 10396 10394 10392 10390 10389 10388 10387 10386 10386 10385 10384 10384 10384 10384 10384 10384 10385 10385 10387 10388 10390 10392 10394 10395 10397 10398 10400 10402 10404 10405 10406 10407 10408 10408 10409
10508 10508 10508 10507 10506 10505 10504 10503 10502 10500 10499 10498 10496 10494 10492 10490 10488 10485 10482 10480 10477 10474 10472 10469 10466 10464 10462 10459 10456 10452 10448 10445 10442 10440 10437 10433 10429 10425 10421 10417 10414 10411 10408 10405 10402 10400 10397 10394 10392 10390 10387 10385 10383 10381 10379 10378 10377 10376 10375 10374 10373 10373 10373 10372 10372 10372 10372 10372 10373 10374 10376 10378 10380 10381 10382 10383 10384 10386 10389 10391 10392 10393 10394 10395 10396
10502 10502 10501 10500 10499 10499 10498 10497 10496 10494 10493 10491 10489 10487 10485 10483 10481 10478 10475 10472 10470 10467 10465 10462 10459 10457 10454 10451 10448 10444 10440 10436 10433 10430 10427 10424 10420 10416 10412 10409 10405 10402 10399 10397 10394 10392 10389 10387 10384 10382 10380 10377 10375 10373 10371 10369 10367 10366 10364 10364 10363 10362 10362 10361 10361 10361 10360 10360 10360 10361 10362 10364 10365 10367 10368 10369 10369 10370 10373 10375 10378 10380 10381 10382 10382
10496 10496 10495 10494 10493 10493 10492 10491 10490 10488 10486 10484 10482 10480 10478 10476 10474 10471 10468 10465 10463 10460 10458 10455 10452 10450 10447 10444 10440 10437 10433 10428 10424 10421 10418 10415 10411 10408 10404 10401 10398 10394 10392 10389 10387 10385 10382 10380 10377 10375 10372 10370 10368 10366 10363 10361 10359 10357 10355 10354 10353 10352 10351 10351 10350 10349 10349 10349 10349 10349 10349 10351 10352 10353 10354 10355 10356 10357 10358 10359 10363 10366 10368 10369 10369
10490 10489 10488 10488 10487 10487 10487 10485 10484 10482 10480 10478 10476 10474 10472 10469 10467 10464 10462 10459 10456 10453 10450 10447 10445 10442 10439 10436 10433 10429 10426 10421 10417 10413 10409 10406 10403 10399 10396 10393 10390 10387 10385 10383 10380 10378 10375 10373 10371 10368 10365 10363 10360 10358 10356 10354 10352 10350 10348 10346 10344 10343 10342 10341 10340 10339 10338 10338 10337 10337 10338 10338 10339 10340 10341 10342 10343 10344 10344 10345 10347 10350 10353 10355 10356
10484 10483 10482 10482 10482 10482 10481 10479 10478 10476 10474 10471 10469 10467 10465 10462 10460 10458 10455 10452 10449 10446 10443 10439 10436 10434 10431 10428 10425 10422 10418 10414 10410 10406 10402 10398 10395 10392 10389 10386 10383 10381 10379 10377 10374 10372 10369 10367 10365 10362 10359 10357 10354 10352 10349 10347 10345 10343 10341 10339 10337 10335 10333 10332 10330 10329 10328 10327 10327 10326 10326 10326 10327 10327 10328 10328 10329 10330 10331 10332 10333 10335 10338 10340 10342
10478 10477 10476 10476 10476 10476 10474 10473 10471 10469 10467 10464 10462 10459 10457 10455 10453 10451 10448 10445 10441 10438 10435 10432 10428 10425 10423 10420 10416 10413 10410 10406 10403 10399 10395 10392 10389 10386 10383 10380 10378 10375 10373 10371 10368 10366 10363 10361 10359 10356 10354 10351 10348 10346 10343 10341 10339 10336 10334 10332 10330 10327 10325 10323 10322 10320 10318 10317 10316 10316 10315 10315 10315 10315 10315 10316 10316 10316 10317 10318 10319 10321 10324 10326 10327
10473 10472 10471 10470 10470 10469 10468 10467 10465 10463 10460 10457 10455 10452 10450 10448 10445 10443 10440 10438 10435 10431 10428 10424 10421 10418 10414 10411 10408 10404 10401 10398 10395 10392 10389 10386 10383 10380 10377 10375 10373 10370 10368 10366 10363 10360 10358 10355 10353 10351 10348 10345 10343 10340 10338 10335 10332 10330 10327 10325 10323 10320 10318 10316 10314 10312 10310 10308 10306 10305 10304 10304 10304 10303 10303 10303 10303 10304 10304 10305 10306 10307 10309 10311 10313
10468 10466 10465 10464 10463 10463 10462 10460 10458 10456 10453 10451 10448 10446 10443 10440 10438 10435 10433 10430 10427 10424 10421 10417 10414 10410 10407 10403 10399 10396 10393 10391 10388 10385 10382 10379 10377 10374 10372 10370 10367 10365 10363 10361 10358 10356 10353 10350 10348 10345 10343 10340 10337 10334 10332 10329 10326 10323 10321 10318 10316 10314 10312 10309 10307 10305 10302 10300 10298 10296 10294 10293 10292 10292 10291 10291 10291 10291 10292 10292 10293 10294 10295 10297 10299
10462 10460 10459 10458 10457 10456 10455 10453 10451 10449 10446 10444 10441 10439 10437 10434 10430 10427 10425 10422 10420 10416 10413 10410 10406 10403 10399 10396 10392 10389 10386 10383 10381 10378 10376 10373 10371 10369 10366 10364 10362 10360 10358 10356 10354 10351 10348 10345 10343 10340 10337 10335 10332 10329 10326 10323 10321 10318 10315 10312 10309 10306 10304 10302 10300 10298 10295 10292 10290 10288 10286 10284 10282 10281 10280 10280 10279 10279 10279 10280 10280 10281 10282 10284 10284
10455 10454 10453 10452 10450 10449 10447 10445 10443 10441 10439 10436 10434 10432 10430 10427 10424 10421 10417 10414 10411 10408 10405 10402 10399 10396 10392 10389 10386 10383 10380 10377 10375 10372 10370 10368 10366 10364 10361 10359 10357 10355 10353 10350 10348 10346 10343 10341 10338 10335 10332 10330 10327 10324 10321 10318 10315 10312 10309 10306 10303 10300 10297 10295 10293 10290 10288 10285 10283 10280 10278 10276 10274 10272 10270 10269 10268 10268 10267 10267 10268 10268 10268 10270 10270
10449 10447 10446 10445 10443 10441 10439 10437 10435 10433 10431 10429 10427 10425 10423 10421 10418 10415 10411 10407 10404 10401 10398 10395 10392 10389 10386 10382 10379 10377 10374 10372 10369 10367 10365 10363 10361 10359 10357 10354 10352 10350 10347 10345 10343 10340 10338 10335 10333 10330 10327 10325 10322 10319 10316 10313 10310 10307 10304 10301 10298 10294 10291 10288 10285 10283 10281 10278 10276 10273 10270 10268 10266 10264 10262 10260 10258 10257 10256 10256 10256 10256 10256 10256 10257
10441 10440 10439 10438 10436 10434 10432 10430 10428 10426 10423 10421 10419 10417 10416 10413 10411 10408 10404 10401 10397 10394 10391 10387 10385 10382 10379 10376 10373 10370 10368 10366 10364 10362 10359 10357 10355 10353 10351 10349 10347 10344 10342 10340 10337 10335 10333 10330 10327 10325 10322 10320 10317 10314 10311 10308 10305 10302 10299 10296 10293 10289 10286 10282 10279 10277 10274 10272 10269 10266 10263 10260 10257 10255 10254 10252 10250 10248 10246 10245 10244 10244 10244 10244 10244
10434 10433 10431 10430 10428 10427 10425 10423 10421 10419 10416 10414 10412 10410 10408 10406 10403 10400 10397 10394 10390 10387 10383 10380 10378 10374 10371 10369 10366 10364 10362 10360 10358 10356 10354 10352 10350 10348 10345 10343 10341 10339 10337 10334 10332 10330 10327 10325 10322 10319 10317 10314 10312 10309 10306 10303 10300 10296 10293 10290 10287 10284 10281 10277 10274 10271 10268 10265 10262 10260 10256 10253 10250 10247 10245 10243 10242 10240 10238 10236 10234 10233 10233 10233 10232
10427 10425 10424 10422 10421 10420 10418 10416 10414 10412 10410 10407 10405 10403 10400 10398 10395 10393 10389 10386 10383 10380 10377 10374 10371 10368 10365 10362 10360 10358 10356 10354 10352 10350 10348 10346 10344 10342 10340 10338 10335 10333 10331 10329 10327 10324 10322 10319 10317 10314 10311 10309 10306 10303 10300 10297 10294 10291 10288 10284 10281 10278 10275 10272 10269 10265 10262 10259 10256 10253 10250 10247 10244 10240 10237 10235 10233 10231 10229 10228 10226 10224 10223 10222 10221
10419 10418 10417 10416 10414 10413 10411 10409 10407 10405 10403 10401 10398 10396 10393 10390 10388 10385 10382 10378 10375 10372 10370 10367 10364 10362 10359 10357 10354 10352 10351 10349 10347 10345 10343 10341 10338 10336 10334 10332 10330 10327 10325 10323 10321 10319 10316 10314 10312 10309 10306 10303 10300 10298 10295 10292 10288 10285 10282 10278 10275 10272 10269 10266 10263 10260 10257 10254 10251 10248 10244 10241 10238 10234 10231 10228 10225 10222 10221 10219 10217 10215 10213 10212 10211
10412 10411 10410 10409 10408 10406 10404 10402 10400 10398 10396 10393 10391 10388 10386 10383 10380 10377 10374 10371 10368 10365 10362 10360 10358 10355 10353 10351 10349 10347 10345 10344 10342 10340 10338 10335 10333 10331 10328 10326 10324 10322 10319 10317 10315 10313 10311 10309 10306 10303 10300 10297 10295 10292 10289 10286 10283 10279 10276 10272 10269 10266 10262 10259 10257 10254 10251 10248 10245 10242 10239 10236 10232 10229 10225 10222 10218 10215 10213 10211 10209 10207 10205 10203 10201
10405 10404 10403 10402 10400 10399 10397 10395 10393 10391 10389 10386 10383 10381 10378 10375 10373 10370 10367 10364 10361 10358 10355 10353 10351 10349 10347 10345 10344 10342 10341 10339 10337 10335 10332 10330 10328 10326 10323 10321 10319 10316 10314 10312 10310 10307 10305 10303 10300 10297 10294 10292 10289 10286 10283 10280 10277 10274 10270 10267 10263 10260 10257 10253 10250 10247 10245 10242 10239 10236 10233 10230 10227 10223 10220 10216 10212 10209 10206 10203 10201 10199 10197 10195 10192
10399 10398 10396 10395 10393 10391 10390 10388 10386 10384 10381 10379 10376 10373 10370 10367 10365 10362 10359 10357 10354 10352 10349 10347 10345 10343 10341 10340 10338 10337 10335 10333 10332 10330 10327 10325 10323 10321 10319 10316 10314 10312 10309 10307 10304 10302 10299 10296 10294 10291 10288 10285 10283 10280 10277 10274 10271 10267 10264 10261 10258 10254 10251 10248 10245 10242 10239 10236 10233 10230 10227 10224 10221 10218 10215 10211 10207 10204 10200 10197 10194 10191 10189 10187 10185
10392 10391 10390 10388 10386 10384 10382 10380 10378 10376 10373 10371 10368 10366 10363 10360 10357 10355 10352 10350 10347 10345 10343 10341 10339 10338 10336 10334 10333 10331 10329 10328 10326 10324 10322 10320 10318 10316 10314 10312 10310 10307 10305 10302 10299 10296 10293 10291 10288 10285 10283 10280 10277 10274 10271 10268 10264 10261 10258 10254 10251 10248 10245 10242 10238 10236 10233 10230 10227 10224 10221 10218 10215 10212 10209 10205 10202 10199 10195 10192 10188 10185 10183 10180 10178
10386 10385 10383 10381 10379 10377 10376 10373 10371 10369 10366 10364 10361 10358 10355 10352 10350 10347 10345 10343 10341 10339 10337 10336 10334 10332 10331 10329 10327 10325 10324 10322 10320 10318 10316 10314 10312 10310 10309 10307 10305 10303 10300 10297 10294 10291 10288 10285 10283 10280 10277 10274 10271 10268 10265 10262 10258 10255 10252 10248 10245 10242 10238 10235 10232 10229 10226 10223 10220 10217 10214 10211 10208 10205 10202 10199 10196 10193 10190 10186 10183 10180 10177 10174 10171
10379 10378 10376 10374 10372 10371 10369 10367 10365 10362 10359 10356 10354 10351 10348 10345 10342 10340 10338 10337 10335 10333 10331 10329 10328 10326 10325 10323 10321 10319 10317 10316 10314 10312 10311 10309 10307 10305 10303 10301 10299 10297 10295 10292 10289 10286 10283 10280 10278 10275 10272 10269 10266 10262 10259 10256 10252 10249 10246 10242 10239 10235 10232 10229 10226 10223 10220 10217 10214 10211 10208 10205 10202 10198 10195 10192 10189 10186 10183 10180 10177 10174 10171 10168 10165
10372 10371 10369 10367 10365 10364 10362 10360 10358 10355 10352 10349 10346 10344 10341 10338 10336 10334 10332 10330 10328 10327 10325 10323 10322 10320 10319 10317 10315 10313 10311 10309 10308 10306 10305 10303 10301 10299 10297 10295 10293 10291 10289 10286 10284 10281 10278 10275 10272 10269 10266 10263 10260 10257 10253 10250 10246 10243 10240 10236 10233 10229 10226 10222 10220 10217 10213 10210 10207 10204 10201 10198 10195 10192 10189 10186 10182 10179 10176 10173 10170 10167 10164 10162 10159
10364 10363 10362 10360 10358 10356 10354 10352 10350 10348 10345 10342 10340 10337 10335 10332 10330 10328 10326 10325 10323 10321 10319 10318 10316 10315 10313 10311 10309 10308 10306 10304 10302 10300 10299 10297 10296 10294 10292 10290 10287 10285 10282 10280 10278 10276 10273 10270 10267 10264 10260 10257 10254 10251 10248 10244 10240 10237 10233 10230 10227 10224 10220 10217 10213 10210 10207 10204 10201 10198 10195 10191 10188 10185 10182 10179 10176 10173 10170 10167 10164 10161 10158 10155 10152
10357 10356 10355 10353 10351 10349 10347 10345 10343 10340 10338 10336 10333 10331 10329 10327 10325 10323 10321 10319 10318 10316 10314 10312 10310 10309 10307 10305 10303 10302 10300 10298 10296 10295 10293 10291 10290 10288 10286 10284 10281 10278 10276 10274 10272 10270 10267 10264 10261 10258 10255 10251 10248 10244 10241 10238 10234 10231 10227 10224 10221 10218 10214 10211 10208 10204 10201 10198 10194 10191 10188 10185 10182 10178 10175 10172 10169 10166 10163 10160 10157 10154 10151 10148 10146